Hourly Data Report for October 06, 2017

All times are specified in Local Standard Time (LST). Add 1 hour to adjust for Daylight Saving Time where and when it is observed.

MOOSONEE
ONTARIO

51°17'28.000" N
80°36'28.000" W
9.10 m
6075420
71398
YMO

Download Data

Hourly Data (October 2017)
Hourly Data Report for October 6, 2017
Temp Definition
°C
Dew Point Temp Definition
°C
Rel Hum Definition
%
Wind Dir Definition
10's deg

Wind Spd Definition
km/h
Visibility Definition
km
Stn Press Definition
kPa
Hmdx Definition


Wind Chill Definition


Weather Definition


TIME
00:00 Legend Double Dagger 2.1 0.0 86 24 13 16.1 101.11     LegendNANA
01:00 Legend Double Dagger 1.1 -0.4 90 24 15 16.1 101.10     LegendNANA
02:00 Legend Double Dagger 1.0 -0.5 90 25 15 16.1 101.07     LegendNANA
03:00 Legend Double Dagger 0.4 -0.7 92 25 15 16.1 101.07     LegendNANA
04:00 Legend Double Dagger 0.4 -0.9 91 25 17 16.1 101.09     LegendNANA
05:00 Legend Double Dagger 0.3 -1.0 91 25 18 16.1 101.13     LegendNANA
06:00 Legend Double Dagger -0.4 -0.5 99 23 13 16.1 101.14   -5 LegendNANA
07:00 Legend Double Dagger -0.5 -0.6 99 23 13 16.1 101.15   -5 LegendNANA
08:00 Legend Double Dagger 1.7 -0.4 86 26 17 16.1 101.16     LegendNANA
09:00 Legend Double Dagger 4.8 0.5 73 24 15 16.1 101.16     LegendNANA
10:00 Legend Double Dagger 7.8 0.0 58 24 24 16.1 101.12     LegendNANA
11:00 Legend Double Dagger 10.0 -0.4 48 24 22 16.1 101.09     LegendNANA
12:00 Legend Double Dagger 12.1 0.0 43 25 24 16.1 101.04     LegendNANA
13:00 Legend Double Dagger 12.3 -0.7 40 22 30 16.1 100.96     LegendNANA
14:00 Legend Double Dagger 13.2 -0.9 38 23 32 16.1 100.90     LegendNANA
15:00 Legend Double Dagger 13.5 0.9 42 22 34 16.1 100.87     LegendNANA
16:00 Legend Double Dagger 13.3 1.7 45 22 28 16.1 100.81     LegendNANA
17:00 Legend Double Dagger 13.0 2.6 49 22 22 16.1 100.80     LegendNANA
18:00 Legend Double Dagger 11.7 3.3 56 22 24 16.1 100.73     LegendNANA
19:00 Legend Double Dagger 11.1 2.9 57 22 24 16.1 100.75     LegendNANA
20:00 Legend Double Dagger 10.0 4.4 68 21 17 16.1 100.72     LegendNANA
21:00 Legend Double Dagger 9.5 3.4 66 21 21 16.1 100.71     LegendNANA
22:00 Legend Double Dagger 9.5 2.6 62 22 26 16.1 100.70     LegendNANA
23:00 Legend Double Dagger 9.1 2.8 65 22 21 16.1 100.73     LegendNANA

Notes on Data Quality.

Legend

  • E = Estimated
  • M = Missing
  • NA = Not Available
  • ‡ = Partner data that is not subject to review by the National Climate Archives
Date modified: